Time,TemperatureF,DewpointF,PressureIn,WindDirection,WindDirectionDegrees,WindSpeedMPH,WindSpeedGustMPH,Humidity,HourlyPrecipIn,Conditions,Clouds,dailyrainin,SoftwareType,DateUTC
2013-01-31 00:02:00,9.2,2.8,30.04,North,0,6.3,10.1,75,0.00,,,0.00,WUHU216HW,2013-01-31 06:02:00,
2013-01-31 00:07:00,9.0,2.3,30.04,North,0,3.8,14.3,74,0.00,,,0.00,WUHU216HW,2013-01-31 06:07:00,
2013-01-31 00:12:00,9.0,2.7,30.04,North,0,7.6,14.3,75,0.00,,,0.00,WUHU216HW,2013-01-31 06:12:00,
2013-01-31 00:17:00,8.8,2.5,30.04,North,0,6.3,13.0,75,0.00,,,0.00,WUHU216HW,2013-01-31 06:17:00,
2013-01-31 00:22:00,8.6,2.1,30.05,North,0,5.4,13.0,74,0.00,,,0.00,WUHU216HW,2013-01-31 06:22:00,
2013-01-31 00:27:00,8.5,1.9,30.04,North,0,5.1,15.9,74,0.00,,,0.00,WUHU216HW,2013-01-31 06:27:00,
2013-01-31 00:32:00,8.3,1.7,30.05,North,0,3.8,15.9,74,0.00,,,0.00,WUHU216HW,2013-01-31 06:32:00,
2013-01-31 00:37:00,8.3,1.7,30.05,North,0,5.8,12.5,74,0.00,,,0.00,WUHU216HW,2013-01-31 06:37:00,
2013-01-31 00:42:00,8.3,2.0,30.05,North,0,5.8,10.7,75,0.00,,,0.00,WUHU216HW,2013-01-31 06:42:00,
2013-01-31 00:47:00,8.1,1.5,30.05,North,0,6.5,12.8,74,0.00,,,0.00,WUHU216HW,2013-01-31 06:47:00,
2013-01-31 00:52:00,8.1,1.8,30.05,North,0,3.6,12.8,75,0.00,,,0.00,WUHU216HW,2013-01-31 06:52:00,
2013-01-31 00:57:00,8.1,1.8,30.05,North,0,1.8,10.1,75,0.00,,,0.00,WUHU216HW,2013-01-31 06:57:00,
2013-01-31 01:02:00,8.1,1.8,30.06,North,0,8.3,11.4,75,0.00,,,0.00,WUHU216HW,2013-01-31 07:02:00,
2013-01-31 01:07:00,7.9,1.4,30.06,North,0,2.5,11.4,74,0.00,,,0.00,WUHU216HW,2013-01-31 07:07:00,
2013-01-31 01:12:00,7.9,1.4,30.06,North,0,6.5,10.1,74,0.00,,,0.00,WUHU216HW,2013-01-31 07:12:00,
2013-01-31 01:17:00,7.9,1.6,30.06,North,0,6.7,10.1,75,0.00,,,0.00,WUHU216HW,2013-01-31 07:17:00,
2013-01-31 01:22:00,7.7,1.4,30.06,North,0,6.3,7.2,75,0.00,,,0.00,WUHU216HW,2013-01-31 07:22:00,
2013-01-31 01:27:00,7.7,1.4,30.06,North,0,6.3,10.5,75,0.00,,,0.00,WUHU216HW,2013-01-31 07:27:00,
2013-01-31 01:32:00,7.6,1.3,30.06,North,0,8.1,10.5,75,0.00,,,0.00,WUHU216HW,2013-01-31 07:32:00,
2013-01-31 01:37:00,7.6,1.3,30.06,North,0,6.7,10.1,75,0.00,,,0.00,WUHU216HW,2013-01-31 07:37:00,
2013-01-31 01:42:00,7.4,1.1,30.07,North,0,8.3,12.1,75,0.00,,,0.00,WUHU216HW,2013-01-31 07:42:00,
2013-01-31 01:47:00,7.4,1.1,30.06,North,0,7.6,12.1,75,0.00,,,0.00,WUHU216HW,2013-01-31 07:47:00,
2013-01-31 01:52:00,7.0,0.7,30.06,North,0,5.1,11.6,75,0.00,,,0.00,WUHU216HW,2013-01-31 07:52:00,
2013-01-31 01:57:00,6.7,0.4,30.07,North,0,5.1,11.6,75,0.00,,,0.00,WUHU216HW,2013-01-31 07:57:00,
2013-01-31 02:02:00,6.3,0.0,30.07,North,0,7.6,10.5,75,0.00,,,0.00,WUHU216HW,2013-01-31 08:02:00,
2013-01-31 02:07:00,6.1,-0.2,30.07,North,0,6.3,11.4,75,0.00,,,0.00,WUHU216HW,2013-01-31 08:07:00,
2013-01-31 02:12:00,6.1,-0.2,30.07,North,0,6.3,11.4,75,0.00,,,0.00,WUHU216HW,2013-01-31 08:12:00,
2013-01-31 02:17:00,5.9,-0.4,30.07,North,0,5.8,11.9,75,0.00,,,0.00,WUHU216HW,2013-01-31 08:17:00,
2013-01-31 02:22:00,5.9,-0.4,30.08,North,0,8.1,11.9,75,0.00,,,0.00,WUHU216HW,2013-01-31 08:22:00,
2013-01-31 02:27:00,5.8,-0.5,30.08,North,0,4.9,12.1,75,0.00,,,0.00,WUHU216HW,2013-01-31 08:27:00,
2013-01-31 02:32:00,5.4,-0.6,30.08,North,0,9.8,12.1,76,0.00,,,0.00,WUHU216HW,2013-01-31 08:32:00,
2013-01-31 02:37:00,5.4,-0.6,30.08,North,0,6.3,10.3,76,0.00,,,0.00,WUHU216HW,2013-01-31 08:37:00,
2013-01-31 02:42:00,5.0,-1.0,30.08,North,0,11.4,11.6,76,0.00,,,0.00,WUHU216HW,2013-01-31 08:42:00,
2013-01-31 02:47:00,4.9,-1.2,30.08,North,0,10.7,12.5,76,0.00,,,0.00,WUHU216HW,2013-01-31 08:47:00,
2013-01-31 02:52:00,4.7,-1.6,30.08,North,0,5.6,12.5,75,0.00,,,0.00,WUHU216HW,2013-01-31 08:52:00,
2013-01-31 02:57:00,4.7,-1.3,30.08,North,0,5.4,10.7,76,0.00,,,0.00,WUHU216HW,2013-01-31 08:57:00,
2013-01-31 03:02:00,4.7,-1.3,30.08,North,0,13.6,13.6,76,0.00,,,0.00,WUHU216HW,2013-01-31 09:02:00,
2013-01-31 03:07:00,4.3,-1.6,30.08,North,0,10.1,13.6,76,0.00,,,0.00,WUHU216HW,2013-01-31 09:07:00,
2013-01-31 03:12:00,4.3,-1.6,30.08,North,0,5.1,13.6,76,0.00,,,0.00,WUHU216HW,2013-01-31 09:12:00,
2013-01-31 03:17:00,4.3,-1.6,30.08,North,0,6.3,10.1,76,0.00,,,0.00,WUHU216HW,2013-01-31 09:17:00,
2013-01-31 03:22:00,4.5,-1.5,30.08,North,0,4.9,10.5,76,0.00,,,0.00,WUHU216HW,2013-01-31 09:22:00,
2013-01-31 03:27:00,4.5,-1.5,30.08,North,0,3.4,10.5,76,0.00,,,0.00,WUHU216HW,2013-01-31 09:27:00,
2013-01-31 03:32:00,4.5,-1.5,30.08,North,0,6.9,9.2,76,0.00,,,0.00,WUHU216HW,2013-01-31 09:32:00,
2013-01-31 03:37:00,4.5,-1.5,30.09,North,0,8.7,12.5,76,0.00,,,0.00,WUHU216HW,2013-01-31 09:37:00,
2013-01-31 03:42:00,4.3,-1.6,30.09,North,0,9.2,12.5,76,0.00,,,0.00,WUHU216HW,2013-01-31 09:42:00,
2013-01-31 03:47:00,4.3,-1.6,30.09,North,0,5.1,9.8,76,0.00,,,0.00,WUHU216HW,2013-01-31 09:47:00,
2013-01-31 03:52:00,4.3,-1.6,30.09,North,0,5.6,11.6,76,0.00,,,0.00,WUHU216HW,2013-01-31 09:52:00,
2013-01-31 03:57:00,4.3,-1.6,30.09,North,0,12.5,12.5,76,0.00,,,0.00,WUHU216HW,2013-01-31 09:57:00,
2013-01-31 04:02:00,4.1,-2.2,30.10,North,0,7.6,12.5,75,0.00,,,0.00,WUHU216HW,2013-01-31 10:02:00,
2013-01-31 04:07:00,4.1,-2.2,30.10,North,0,7.8,12.5,75,0.00,,,0.00,WUHU216HW,2013-01-31 10:07:00,
2013-01-31 04:12:00,4.1,-2.2,30.10,North,0,6.3,10.3,75,0.00,,,0.00,WUHU216HW,2013-01-31 10:12:00,
2013-01-31 04:17:00,4.1,-2.2,30.10,North,0,4.0,9.4,75,0.00,,,0.00,WUHU216HW,2013-01-31 10:17:00,
2013-01-31 04:22:00,4.0,-2.2,30.10,North,0,9.8,10.1,75,0.00,,,0.00,WUHU216HW,2013-01-31 10:22:00,
2013-01-31 04:27:00,4.0,-2.2,30.11,North,0,6.5,10.1,75,0.00,,,0.00,WUHU216HW,2013-01-31 10:27:00,
2013-01-31 04:32:00,4.0,-2.2,30.11,North,0,8.9,13.0,75,0.00,,,0.00,WUHU216HW,2013-01-31 10:32:00,
2013-01-31 04:37:00,3.8,-2.7,30.11,North,0,4.3,13.0,74,0.00,,,0.00,WUHU216HW,2013-01-31 10:37:00,
2013-01-31 04:42:00,3.8,-2.7,30.11,North,0,12.5,12.5,74,0.00,,,0.00,WUHU216HW,2013-01-31 10:42:00,
2013-01-31 04:47:00,3.8,-2.7,30.11,North,0,6.3,14.1,74,0.00,,,0.00,WUHU216HW,2013-01-31 10:47:00,
2013-01-31 04:52:00,3.8,-2.4,30.11,North,0,4.7,14.1,75,0.00,,,0.00,WUHU216HW,2013-01-31 10:52:00,
2013-01-31 04:57:00,3.8,-2.4,30.11,North,0,7.6,12.3,75,0.00,,,0.00,WUHU216HW,2013-01-31 10:57:00,
2013-01-31 05:02:00,3.6,-2.6,30.11,North,0,8.9,12.3,75,0.00,,,0.00,WUHU216HW,2013-01-31 11:02:00,
2013-01-31 05:07:00,3.4,-3.0,30.11,North,0,4.0,12.8,74,0.00,,,0.00,WUHU216HW,2013-01-31 11:07:00,
2013-01-31 05:12:00,3.4,-3.0,30.12,North,0,7.4,12.8,74,0.00,,,0.00,WUHU216HW,2013-01-31 11:12:00,
2013-01-31 05:17:00,3.4,-2.8,30.12,North,0,3.1,10.7,75,0.00,,,0.00,WUHU216HW,2013-01-31 11:17:00,
2013-01-31 05:22:00,3.4,-2.8,30.12,North,0,5.4,11.6,75,0.00,,,0.00,WUHU216HW,2013-01-31 11:22:00,
2013-01-31 05:27:00,3.2,-3.0,30.13,North,0,7.8,11.6,75,0.00,,,0.00,WUHU216HW,2013-01-31 11:27:00,
2013-01-31 05:32:00,3.2,-3.0,30.13,North,0,5.4,10.1,75,0.00,,,0.00,WUHU216HW,2013-01-31 11:32:00,
2013-01-31 05:37:00,3.1,-3.1,30.13,North,0,3.6,10.1,75,0.00,,,0.00,WUHU216HW,2013-01-31 11:37:00,
2013-01-31 05:42:00,3.1,-2.9,30.13,North,0,8.3,9.8,76,0.00,,,0.00,WUHU216HW,2013-01-31 11:42:00,
2013-01-31 05:47:00,3.1,-2.9,30.13,North,0,4.9,11.6,76,0.00,,,0.00,WUHU216HW,2013-01-31 11:47:00,
2013-01-31 05:52:00,2.9,-3.1,30.14,North,0,4.3,11.6,76,0.00,,,0.00,WUHU216HW,2013-01-31 11:52:00,
2013-01-31 05:57:00,2.9,-3.1,30.14,North,0,8.3,11.6,76,0.00,,,0.00,WUHU216HW,2013-01-31 11:57:00,
2013-01-31 06:02:00,2.9,-3.1,30.14,North,0,9.8,9.8,76,0.00,,,0.00,WUHU216HW,2013-01-31 12:02:00,
2013-01-31 06:07:00,2.7,-3.2,30.14,North,0,12.8,12.8,76,0.00,,,0.00,WUHU216HW,2013-01-31 12:07:00,
2013-01-31 06:12:00,2.5,-3.4,30.14,North,0,4.7,12.8,76,0.00,,,0.00,WUHU216HW,2013-01-31 12:12:00,
2013-01-31 06:17:00,2.3,-3.6,30.15,North,0,5.8,12.8,76,0.00,,,0.00,WUHU216HW,2013-01-31 12:17:00,
2013-01-31 06:22:00,2.2,-3.8,30.15,North,0,5.4,12.8,76,0.00,,,0.00,WUHU216HW,2013-01-31 12:22:00,
2013-01-31 06:27:00,1.8,-4.1,30.16,North,0,7.6,12.8,76,0.00,,,0.00,WUHU216HW,2013-01-31 12:27:00,
2013-01-31 06:32:00,1.8,-4.1,30.16,North,0,5.1,9.8,76,0.00,,,0.00,WUHU216HW,2013-01-31 12:32:00,
2013-01-31 06:37:00,1.8,-4.1,30.16,North,0,5.1,9.8,76,0.00,,,0.00,WUHU216HW,2013-01-31 12:37:00,
2013-01-31 06:42:00,1.6,-4.3,30.16,North,0,7.6,9.6,76,0.00,,,0.00,WUHU216HW,2013-01-31 12:42:00,
2013-01-31 06:47:00,1.4,-4.5,30.16,North,0,13.0,13.0,76,0.00,,,0.00,WUHU216HW,2013-01-31 12:47:00,
2013-01-31 06:52:00,1.1,-4.9,30.16,North,0,11.4,13.4,76,0.00,,,0.00,WUHU216HW,2013-01-31 12:52:00,
2013-01-31 06:57:00,1.1,-4.9,30.17,North,0,5.6,13.4,76,0.00,,,0.00,WUHU216HW,2013-01-31 12:57:00,
2013-01-31 07:02:00,0.9,-5.0,30.17,North,0,4.3,13.0,76,0.00,,,0.00,WUHU216HW,2013-01-31 13:02:00,
2013-01-31 07:07:00,0.9,-5.0,30.17,North,0,3.4,13.0,76,0.00,,,0.00,WUHU216HW,2013-01-31 13:07:00,
2013-01-31 07:12:00,0.9,-5.0,30.18,North,0,4.9,9.2,76,0.00,,,0.00,WUHU216HW,2013-01-31 13:12:00,
2013-01-31 07:17:00,0.9,-5.0,30.18,North,0,6.7,8.7,76,0.00,,,0.00,WUHU216HW,2013-01-31 13:17:00,
2013-01-31 07:22:00,0.9,-5.0,30.18,North,0,5.1,8.5,76,0.00,,,0.00,WUHU216HW,2013-01-31 13:22:00,
2013-01-31 07:27:00,0.9,-5.0,30.18,North,0,10.7,10.7,76,0.00,,,0.00,WUHU216HW,2013-01-31 13:27:00,
2013-01-31 07:32:00,0.9,-5.3,30.18,North,0,4.7,11.0,75,0.00,,,0.00,WUHU216HW,2013-01-31 13:32:00,
2013-01-31 07:37:00,0.9,-5.3,30.19,North,0,5.8,15.4,75,0.00,,,0.00,WUHU216HW,2013-01-31 13:37:00,
2013-01-31 07:42:00,1.1,-5.1,30.19,North,0,2.5,15.4,75,0.00,,,0.00,WUHU216HW,2013-01-31 13:42:00,
2013-01-31 07:47:00,1.1,-5.1,30.19,North,0,12.8,12.8,75,0.00,,,0.00,WUHU216HW,2013-01-31 13:47:00,
2013-01-31 07:52:00,1.1,-5.4,30.19,North,0,5.4,12.8,74,0.00,,,0.00,WUHU216HW,2013-01-31 13:52:00,
2013-01-31 07:57:00,1.1,-5.4,30.19,North,0,5.4,15.0,74,0.00,,,0.00,WUHU216HW,2013-01-31 13:57:00,
2013-01-31 08:02:00,0.9,-5.6,30.19,North,0,7.2,15.0,74,0.00,,,0.00,WUHU216HW,2013-01-31 14:02:00,
2013-01-31 08:07:00,0.7,-6.0,30.20,North,0,6.7,12.5,73,0.00,,,0.00,WUHU216HW,2013-01-31 14:07:00,
2013-01-31 08:12:00,0.7,-6.0,30.21,North,0,1.3,12.5,73,0.00,,,0.00,WUHU216HW,2013-01-31 14:12:00,
2013-01-31 08:17:00,0.7,-6.0,30.21,North,0,5.1,8.7,73,0.00,,,0.00,WUHU216HW,2013-01-31 14:17:00,
2013-01-31 08:22:00,0.7,-6.0,30.21,North,0,9.2,10.5,73,0.00,,,0.00,WUHU216HW,2013-01-31 14:22:00,
2013-01-31 08:27:00,0.5,-6.5,30.21,North,0,9.4,13.0,72,0.00,,,0.00,WUHU216HW,2013-01-31 14:27:00,
2013-01-31 08:32:00,0.4,-6.7,30.22,North,0,7.6,13.0,72,0.00,,,0.00,WUHU216HW,2013-01-31 14:32:00,
2013-01-31 08:37:00,0.4,-6.7,30.22,North,0,10.7,11.6,72,0.00,,,0.00,WUHU216HW,2013-01-31 14:37:00,
2013-01-31 08:42:00,0.4,-6.7,30.23,North,0,7.2,15.9,72,0.00,,,0.00,WUHU216HW,2013-01-31 14:42:00,
2013-01-31 08:47:00,0.0,-7.3,30.23,North,0,5.4,15.9,71,0.00,,,0.00,WUHU216HW,2013-01-31 14:47:00,
2013-01-31 08:52:00,0.0,-7.0,30.23,North,0,3.8,12.8,72,0.00,,,0.00,WUHU216HW,2013-01-31 14:52:00,
2013-01-31 08:57:00,0.2,-7.1,30.23,North,0,6.3,12.5,71,0.00,,,0.00,WUHU216HW,2013-01-31 14:57:00,
2013-01-31 09:02:00,0.0,-7.3,30.24,North,0,8.7,12.8,71,0.00,,,0.00,WUHU216HW,2013-01-31 15:02:00,
2013-01-31 09:07:00,-0.2,-7.7,30.24,North,0,4.5,18.8,70,0.00,,,0.00,WUHU216HW,2013-01-31 15:07:00,
2013-01-31 09:12:00,-0.4,-7.9,30.24,North,0,5.1,11.6,70,0.00,,,0.00,WUHU216HW,2013-01-31 15:12:00,
2013-01-31 09:17:00,-0.4,-7.6,30.25,North,0,7.4,11.9,71,0.00,,,0.00,WUHU216HW,2013-01-31 15:17:00,
2013-01-31 09:22:00,-0.4,-7.9,30.25,North,0,7.6,17.4,70,0.00,,,0.00,WUHU216HW,2013-01-31 15:22:00,
2013-01-31 09:27:00,-0.4,-8.2,30.25,North,0,7.6,17.4,69,0.00,,,0.00,WUHU216HW,2013-01-31 15:27:00,
2013-01-31 09:32:00,-0.4,-8.2,30.26,North,0,16.6,16.6,69,0.00,,,0.00,WUHU216HW,2013-01-31 15:32:00,
2013-01-31 09:38:00,-0.4,-7.9,30.26,North,0,7.4,16.6,70,0.00,,,0.00,WUHU216HW,2013-01-31 15:38:00,
2013-01-31 09:42:00,-0.2,-7.7,30.27,North,0,10.5,16.6,70,0.00,,,0.00,WUHU216HW,2013-01-31 15:42:00,
2013-01-31 09:48:00,-0.4,-8.2,30.27,North,0,10.5,15.0,69,0.00,,,0.00,WUHU216HW,2013-01-31 15:48:00,
2013-01-31 09:52:00,-0.5,-8.4,30.27,North,0,8.9,16.1,69,0.00,,,0.00,WUHU216HW,2013-01-31 15:52:00,
2013-01-31 09:58:00,-0.5,-8.1,30.28,North,0,11.2,16.1,70,0.00,,,0.00,WUHU216HW,2013-01-31 15:58:00,
2013-01-31 10:02:00,-0.9,-8.4,30.28,North,0,9.6,15.2,70,0.00,,,0.00,WUHU216HW,2013-01-31 16:02:00,
2013-01-31 10:07:00,-1.1,-8.5,30.28,North,0,7.6,15.2,70,0.00,,,0.00,WUHU216HW,2013-01-31 16:07:00,
2013-01-31 10:12:00,-1.1,-8.3,30.28,North,0,5.1,13.6,71,0.00,,,0.00,WUHU216HW,2013-01-31 16:12:00,
2013-01-31 10:17:00,-0.9,-8.1,30.28,North,0,14.3,14.3,71,0.00,,,0.00,WUHU216HW,2013-01-31 16:17:00,
2013-01-31 10:22:00,-0.7,-7.9,30.29,North,0,6.9,15.7,71,0.00,,,0.00,WUHU216HW,2013-01-31 16:22:00,
2013-01-31 10:27:00,-0.9,-8.4,30.29,North,0,7.2,15.7,70,0.00,,,0.00,WUHU216HW,2013-01-31 16:27:00,
2013-01-31 10:32:00,-0.9,-8.7,30.29,North,0,10.3,15.2,69,0.00,,,0.00,WUHU216HW,2013-01-31 16:32:00,
2013-01-31 10:37:00,-1.1,-8.9,30.29,North,0,6.9,15.2,69,0.00,,,0.00,WUHU216HW,2013-01-31 16:37:00,
2013-01-31 10:42:00,-1.1,-8.9,30.29,North,0,12.1,17.7,69,0.00,,,0.00,WUHU216HW,2013-01-31 16:42:00,
2013-01-31 10:47:00,-1.1,-8.9,30.30,North,0,10.5,17.7,69,0.00,,,0.00,WUHU216HW,2013-01-31 16:47:00,
2013-01-31 10:52:00,-0.9,-8.7,30.30,North,0,4.3,18.1,69,0.00,,,0.00,WUHU216HW,2013-01-31 16:52:00,
2013-01-31 10:57:00,-0.5,-8.1,30.30,North,0,12.1,18.1,70,0.00,,,0.00,WUHU216HW,2013-01-31 16:57:00,
2013-01-31 11:02:00,-0.5,-8.4,30.30,North,0,4.7,15.7,69,0.00,,,0.00,WUHU216HW,2013-01-31 17:02:00,
2013-01-31 11:07:00,-0.2,-8.0,30.31,North,0,4.5,15.7,69,0.00,,,0.00,WUHU216HW,2013-01-31 17:07:00,
2013-01-31 11:12:00,0.0,-7.8,30.31,North,0,6.3,13.9,69,0.00,,,0.00,WUHU216HW,2013-01-31 17:12:00,
2013-01-31 11:18:00,0.4,-7.5,30.31,North,0,9.8,13.9,69,0.00,,,0.00,WUHU216HW,2013-01-31 17:18:00,
2013-01-31 11:23:00,0.5,-7.0,30.31,North,0,11.0,11.9,70,0.00,,,0.00,WUHU216HW,2013-01-31 17:23:00,
2013-01-31 11:28:00,0.5,-7.3,30.31,North,0,4.7,11.0,69,0.00,,,0.00,WUHU216HW,2013-01-31 17:28:00,
2013-01-31 11:33:00,0.9,-7.0,30.31,North,0,9.2,13.0,69,0.00,,,0.00,WUHU216HW,2013-01-31 17:33:00,
2013-01-31 11:38:00,0.7,-7.5,30.31,North,0,8.3,14.3,68,0.00,,,0.00,WUHU216HW,2013-01-31 17:38:00,
2013-01-31 11:43:00,0.5,-7.3,30.31,North,0,5.8,14.3,69,0.00,,,0.00,WUHU216HW,2013-01-31 17:43:00,
2013-01-31 11:48:00,0.7,-7.5,30.31,North,0,11.0,16.6,68,0.01,,,0.00,WUHU216HW,2013-01-31 17:48:00,
2013-01-31 11:53:00,0.9,-7.0,30.31,North,0,13.0,16.6,69,0.01,,,0.00,WUHU216HW,2013-01-31 17:53:00,
2013-01-31 11:58:00,1.1,-6.8,30.31,North,0,10.5,15.0,69,0.01,,,0.00,WUHU216HW,2013-01-31 17:58:00,
2013-01-31 12:03:00,1.1,-7.1,30.31,North,0,7.8,15.4,68,0.01,,,0.00,WUHU216HW,2013-01-31 18:03:00,
2013-01-31 12:08:00,1.3,-6.7,30.32,North,0,12.1,15.4,69,0.01,,,0.00,WUHU216HW,2013-01-31 18:08:00,
2013-01-31 12:13:00,1.4,-6.7,30.32,North,0,3.8,13.6,68,0.01,,,0.00,WUHU216HW,2013-01-31 18:13:00,
2013-01-31 12:18:00,1.4,-6.7,30.32,North,0,8.5,15.7,68,0.01,,,0.00,WUHU216HW,2013-01-31 18:18:00,
2013-01-31 12:23:00,1.6,-6.6,30.32,North,0,9.8,15.7,68,0.01,,,0.00,WUHU216HW,2013-01-31 18:23:00,
2013-01-31 12:28:00,1.6,-6.6,30.32,North,0,4.3,13.4,68,0.01,,,0.00,WUHU216HW,2013-01-31 18:28:00,
2013-01-31 12:33:00,1.8,-6.4,30.32,North,0,8.5,12.1,68,0.01,,,0.00,WUHU216HW,2013-01-31 18:33:00,
2013-01-31 12:38:00,1.8,-6.7,30.32,North,0,7.6,16.3,67,0.01,,,0.00,WUHU216HW,2013-01-31 18:38:00,
2013-01-31 12:43:00,2.0,-6.2,30.32,North,0,8.1,16.6,68,0.01,,,0.00,WUHU216HW,2013-01-31 18:43:00,
2013-01-31 12:48:00,2.0,-6.2,30.32,North,0,12.8,16.6,68,0.00,,,0.00,WUHU216HW,2013-01-31 18:48:00,
2013-01-31 12:52:00,2.0,-6.2,30.32,North,0,7.4,19.2,68,0.00,,,0.00,WUHU216HW,2013-01-31 18:52:00,
2013-01-31 12:57:00,2.0,-6.6,30.32,North,0,11.9,19.2,67,0.00,,,0.00,WUHU216HW,2013-01-31 18:57:00,
2013-01-31 13:02:00,2.3,-5.8,30.33,North,0,11.9,17.7,68,0.00,,,0.00,WUHU216HW,2013-01-31 19:02:00,
2013-01-31 13:07:00,2.5,-6.0,30.33,North,0,9.4,13.4,67,0.00,,,0.00,WUHU216HW,2013-01-31 19:07:00,
2013-01-31 13:12:00,2.5,-6.0,30.33,North,0,13.6,14.8,67,0.00,,,0.00,WUHU216HW,2013-01-31 19:12:00,
2013-01-31 13:17:00,2.5,-6.0,30.33,North,0,5.8,14.8,67,0.00,,,0.00,WUHU216HW,2013-01-31 19:17:00,
2013-01-31 13:22:00,2.7,-5.8,30.34,North,0,5.6,13.6,67,0.00,,,0.00,WUHU216HW,2013-01-31 19:22:00,
2013-01-31 13:27:00,2.5,-6.0,30.34,North,0,8.9,14.8,67,0.00,,,0.00,WUHU216HW,2013-01-31 19:27:00,
2013-01-31 13:32:00,2.5,-6.0,30.34,North,0,11.4,16.3,67,0.00,,,0.00,WUHU216HW,2013-01-31 19:32:00,
2013-01-31 13:38:00,2.5,-6.0,30.34,North,0,10.3,16.3,67,0.00,,,0.00,WUHU216HW,2013-01-31 19:38:00,
2013-01-31 13:42:00,2.9,-5.3,30.34,North,0,7.2,15.9,68,0.00,,,0.00,WUHU216HW,2013-01-31 19:42:00,
2013-01-31 13:48:00,2.7,-5.5,30.34,North,0,4.7,15.9,68,0.00,,,0.00,WUHU216HW,2013-01-31 19:48:00,
2013-01-31 13:53:00,2.9,-5.0,30.34,North,0,6.5,15.7,69,0.00,,,0.00,WUHU216HW,2013-01-31 19:53:00,
2013-01-31 13:58:00,2.7,-5.2,30.34,North,0,9.6,17.4,69,0.00,,,0.00,WUHU216HW,2013-01-31 19:58:00,
2013-01-31 14:03:00,2.9,-5.0,30.34,North,0,6.9,17.4,69,0.00,,,0.00,WUHU216HW,2013-01-31 20:03:00,
2013-01-31 14:08:00,3.1,-4.9,30.35,North,0,12.5,14.8,69,0.00,,,0.00,WUHU216HW,2013-01-31 20:08:00,
2013-01-31 14:12:00,3.1,-5.1,30.35,North,0,7.8,12.8,68,0.00,,,0.00,WUHU216HW,2013-01-31 20:12:00,
2013-01-31 14:18:00,2.9,-5.7,30.35,North,0,6.9,14.5,67,0.00,,,0.00,WUHU216HW,2013-01-31 20:18:00,
2013-01-31 14:23:00,3.1,-5.5,30.35,North,0,6.9,14.5,67,0.00,,,0.00,WUHU216HW,2013-01-31 20:23:00,
2013-01-31 14:28:00,2.9,-5.7,30.35,North,0,12.8,15.9,67,0.00,,,0.00,WUHU216HW,2013-01-31 20:28:00,
2013-01-31 14:33:00,2.7,-5.8,30.36,North,0,15.2,15.9,67,0.00,,,0.00,WUHU216HW,2013-01-31 20:33:00,
2013-01-31 14:38:00,2.7,-5.8,30.36,North,0,4.3,16.3,67,0.00,,,0.00,WUHU216HW,2013-01-31 20:38:00,
2013-01-31 14:43:00,2.9,-5.7,30.36,North,0,9.6,16.3,67,0.00,,,0.00,WUHU216HW,2013-01-31 20:43:00,
2013-01-31 14:48:00,3.1,-5.7,30.37,North,0,17.4,17.4,66,0.00,,,0.00,WUHU216HW,2013-01-31 20:48:00,
2013-01-31 14:53:00,3.2,-5.6,30.36,North,0,9.4,17.4,66,0.00,,,0.00,WUHU216HW,2013-01-31 20:53:00,
2013-01-31 14:57:00,3.4,-5.1,30.37,North,0,12.1,17.4,67,0.00,,,0.00,WUHU216HW,2013-01-31 20:57:00,
2013-01-31 15:02:00,3.4,-5.1,30.37,North,0,11.4,13.9,67,0.00,,,0.00,WUHU216HW,2013-01-31 21:02:00,
2013-01-31 15:07:00,3.2,-5.9,30.37,North,0,12.1,19.7,65,0.00,,,0.00,WUHU216HW,2013-01-31 21:07:00,
2013-01-31 15:12:00,3.1,-5.7,30.38,North,0,8.1,19.7,66,0.00,,,0.00,WUHU216HW,2013-01-31 21:12:00,
2013-01-31 15:17:00,3.1,-5.7,30.38,North,0,7.6,13.9,66,0.00,,,0.00,WUHU216HW,2013-01-31 21:17:00,
2013-01-31 15:22:00,3.1,-5.7,30.38,North,0,11.9,13.9,66,0.00,,,0.00,WUHU216HW,2013-01-31 21:22:00,
2013-01-31 15:27:00,3.1,-5.5,30.38,North,0,9.8,15.0,67,0.00,,,0.00,WUHU216HW,2013-01-31 21:27:00,
2013-01-31 15:32:00,2.9,-5.9,30.38,North,0,6.9,19.7,66,0.00,,,0.00,WUHU216HW,2013-01-31 21:32:00,
2013-01-31 15:37:00,2.9,-5.9,30.39,North,0,6.9,19.7,66,0.00,,,0.00,WUHU216HW,2013-01-31 21:37:00,
2013-01-31 15:42:00,2.7,-5.8,30.39,North,0,5.4,18.3,67,0.00,,,0.00,WUHU216HW,2013-01-31 21:42:00,
2013-01-31 15:47:00,2.7,-5.8,30.39,North,0,5.8,13.4,67,0.00,,,0.00,WUHU216HW,2013-01-31 21:47:00,
2013-01-31 15:52:00,2.5,-6.3,30.40,North,0,11.4,13.4,66,0.00,,,0.00,WUHU216HW,2013-01-31 21:52:00,
2013-01-31 15:57:00,2.2,-6.6,30.40,North,0,7.8,15.9,66,0.00,,,0.00,WUHU216HW,2013-01-31 21:57:00,
2013-01-31 16:02:00,2.0,-6.6,30.40,North,0,6.3,15.9,67,0.00,,,0.00,WUHU216HW,2013-01-31 22:02:00,
2013-01-31 16:07:00,2.0,-6.6,30.40,North,0,5.8,11.6,67,0.00,,,0.00,WUHU216HW,2013-01-31 22:07:00,
2013-01-31 16:12:00,1.8,-6.7,30.40,North,0,12.1,18.3,67,0.00,,,0.00,WUHU216HW,2013-01-31 22:12:00,
2013-01-31 16:17:00,1.8,-7.0,30.41,North,0,6.3,18.3,66,0.00,,,0.00,WUHU216HW,2013-01-31 22:17:00,
2013-01-31 16:22:00,1.6,-6.9,30.41,North,0,5.4,13.4,67,0.00,,,0.00,WUHU216HW,2013-01-31 22:22:00,
2013-01-31 16:27:00,1.6,-6.9,30.42,North,0,11.4,13.2,67,0.00,,,0.00,WUHU216HW,2013-01-31 22:27:00,
2013-01-31 16:32:00,1.3,-7.5,30.42,North,0,9.4,15.0,66,0.00,,,0.00,WUHU216HW,2013-01-31 22:32:00,
2013-01-31 16:37:00,1.1,-7.7,30.42,North,0,9.2,15.0,66,0.00,,,0.00,WUHU216HW,2013-01-31 22:37:00,
2013-01-31 16:42:00,1.1,-7.5,30.42,North,0,7.2,13.9,67,0.00,,,0.00,WUHU216HW,2013-01-31 22:42:00,
2013-01-31 16:47:00,0.9,-7.6,30.42,North,0,8.3,11.9,67,0.00,,,0.00,WUHU216HW,2013-01-31 22:47:00,
2013-01-31 16:52:00,0.7,-7.8,30.43,North,0,6.0,11.9,67,0.00,,,0.00,WUHU216HW,2013-01-31 22:52:00,
2013-01-31 16:57:00,0.5,-7.9,30.43,North,0,6.9,14.1,67,0.00,,,0.00,WUHU216HW,2013-01-31 22:57:00,
2013-01-31 17:02:00,0.4,-8.1,30.43,North,0,11.0,15.0,67,0.00,,,0.00,WUHU216HW,2013-01-31 23:02:00,
2013-01-31 17:07:00,-0.2,-8.6,30.44,North,0,11.4,16.1,67,0.00,,,0.00,WUHU216HW,2013-01-31 23:07:00,
2013-01-31 17:12:00,-0.4,-8.8,30.44,North,0,9.8,16.1,67,0.00,,,0.00,WUHU216HW,2013-01-31 23:12:00,
2013-01-31 17:17:00,-0.4,-8.8,30.44,North,0,6.3,12.8,67,0.00,,,0.00,WUHU216HW,2013-01-31 23:17:00,
2013-01-31 17:22:00,-0.5,-9.0,30.44,North,0,5.6,12.8,67,0.00,,,0.00,WUHU216HW,2013-01-31 23:22:00,
2013-01-31 17:27:00,-0.9,-9.4,30.44,North,0,16.1,16.1,67,0.00,,,0.00,WUHU216HW,2013-01-31 23:27:00,
2013-01-31 17:32:00,-1.1,-9.2,30.44,North,0,4.7,16.1,68,0.00,,,0.00,WUHU216HW,2013-01-31 23:32:00,
2013-01-31 17:37:00,-1.1,-9.2,30.45,North,0,10.1,11.6,68,0.00,,,0.00,WUHU216HW,2013-01-31 23:37:00,
2013-01-31 17:42:00,-1.3,-9.4,30.45,North,0,10.7,13.9,68,0.00,,,0.00,WUHU216HW,2013-01-31 23:42:00,
2013-01-31 17:48:00,-1.3,-9.4,30.45,North,0,5.4,13.9,68,0.00,,,0.00,WUHU216HW,2013-01-31 23:48:00,
2013-01-31 17:53:00,-1.6,-9.7,30.45,North,0,5.1,11.0,68,0.00,,,0.00,WUHU216HW,2013-01-31 23:53:00,
2013-01-31 17:58:00,-1.6,-9.7,30.46,North,0,6.0,15.9,68,0.00,,,0.00,WUHU216HW,2013-01-31 23:58:00,
2013-01-31 18:02:00,-1.8,-9.9,30.46,North,0,12.5,15.9,68,0.00,,,0.00,WUHU216HW,2013-02-01 00:02:00,
2013-01-31 18:07:00,-1.8,-9.9,30.46,North,0,8.3,14.1,68,0.00,,,0.00,WUHU216HW,2013-02-01 00:07:00,
2013-01-31 18:12:00,-2.0,-10.0,30.46,North,0,3.8,14.1,68,0.00,,,0.00,WUHU216HW,2013-02-01 00:12:00,
2013-01-31 18:17:00,-2.2,-10.2,30.47,North,0,6.9,12.5,68,0.00,,,0.00,WUHU216HW,2013-02-01 00:17:00,
2013-01-31 18:22:00,-2.2,-10.2,30.47,North,0,3.8,12.5,68,0.00,,,0.00,WUHU216HW,2013-02-01 00:22:00,
2013-01-31 18:27:00,-2.3,-10.1,30.47,North,0,7.2,9.8,69,0.00,,,0.00,WUHU216HW,2013-02-01 00:27:00,
2013-01-31 18:32:00,-2.3,-10.1,30.47,North,0,13.9,13.9,69,0.00,,,0.00,WUHU216HW,2013-02-01 00:32:00,
2013-01-31 18:37:00,-2.5,-10.3,30.47,North,0,6.3,13.9,69,0.00,,,0.00,WUHU216HW,2013-02-01 00:37:00,
2013-01-31 18:42:00,-2.5,-10.3,30.47,North,0,9.2,13.9,69,0.00,,,0.00,WUHU216HW,2013-02-01 00:42:00,
2013-01-31 18:47:00,-2.5,-10.3,30.47,North,0,5.4,10.3,69,0.00,,,0.00,WUHU216HW,2013-02-01 00:47:00,
2013-01-31 18:53:00,-2.7,-10.4,30.47,North,0,5.1,10.3,69,0.00,,,0.00,WUHU216HW,2013-02-01 00:53:00,
2013-01-31 18:58:00,-2.7,-10.4,30.48,North,0,9.8,12.5,69,0.00,,,0.00,WUHU216HW,2013-02-01 00:58:00,
2013-01-31 19:03:00,-2.9,-10.6,30.48,North,0,3.4,12.5,69,0.00,,,0.00,WUHU216HW,2013-02-01 01:03:00,
2013-01-31 19:08:00,-2.9,-10.6,30.48,North,0,5.4,11.2,69,0.00,,,0.00,WUHU216HW,2013-02-01 01:08:00,
2013-01-31 19:13:00,-3.1,-10.8,30.48,North,0,3.8,11.2,69,0.00,,,0.00,WUHU216HW,2013-02-01 01:13:00,
2013-01-31 19:18:00,-3.1,-10.8,30.48,North,0,3.6,9.8,69,0.00,,,0.00,WUHU216HW,2013-02-01 01:18:00,
2013-01-31 19:23:00,-3.2,-10.9,30.48,North,0,5.6,10.3,69,0.00,,,0.00,WUHU216HW,2013-02-01 01:23:00,
2013-01-31 19:28:00,-3.2,-10.9,30.48,North,0,3.4,10.3,69,0.00,,,0.00,WUHU216HW,2013-02-01 01:28:00,
2013-01-31 19:33:00,-3.4,-11.1,30.49,North,0,4.5,8.9,69,0.00,,,0.00,WUHU216HW,2013-02-01 01:33:00,
2013-01-31 19:38:00,-3.4,-11.1,30.49,North,0,4.0,8.7,69,0.00,,,0.00,WUHU216HW,2013-02-01 01:38:00,
2013-01-31 19:43:00,-3.4,-11.1,30.50,North,0,9.2,10.5,69,0.00,,,0.00,WUHU216HW,2013-02-01 01:43:00,
2013-01-31 19:48:00,-3.6,-11.6,30.49,North,0,6.9,10.5,68,0.00,,,0.00,WUHU216HW,2013-02-01 01:48:00,
2013-01-31 19:53:00,-3.6,-11.6,30.50,North,0,8.9,13.2,68,0.00,,,0.00,WUHU216HW,2013-02-01 01:53:00,
2013-01-31 19:58:00,-3.6,-11.6,30.50,North,0,9.2,13.2,68,0.00,,,0.00,WUHU216HW,2013-02-01 01:58:00,
2013-01-31 20:03:00,-3.8,-11.4,30.50,North,0,7.2,11.0,69,0.00,,,0.00,WUHU216HW,2013-02-01 02:03:00,
2013-01-31 20:08:00,-3.8,-11.4,30.50,North,0,6.3,11.0,69,0.00,,,0.00,WUHU216HW,2013-02-01 02:08:00,
2013-01-31 20:13:00,-4.0,-11.6,30.50,North,0,4.7,7.8,69,0.00,,,0.00,WUHU216HW,2013-02-01 02:13:00,
2013-01-31 20:18:00,-4.0,-12.0,30.50,North,0,3.4,9.2,68,0.00,,,0.00,WUHU216HW,2013-02-01 02:18:00,
2013-01-31 20:23:00,-4.0,-12.0,30.50,North,0,6.5,11.4,68,0.00,,,0.00,WUHU216HW,2013-02-01 02:23:00,
2013-01-31 20:28:00,-4.0,-12.0,30.50,North,0,6.3,11.4,68,0.00,,,0.00,WUHU216HW,2013-02-01 02:28:00,
2013-01-31 20:33:00,-4.0,-12.0,30.51,North,0,7.4,8.9,68,0.00,,,0.00,WUHU216HW,2013-02-01 02:33:00,
2013-01-31 20:38:00,-4.0,-12.0,30.51,North,0,6.3,10.1,68,0.00,,,0.00,WUHU216HW,2013-02-01 02:38:00,
2013-01-31 20:43:00,-4.1,-12.1,30.51,North,0,6.7,10.1,68,0.00,,,0.00,WUHU216HW,2013-02-01 02:43:00,
2013-01-31 20:48:00,-4.1,-12.1,30.51,North,0,5.1,9.2,68,0.00,,,0.00,WUHU216HW,2013-02-01 02:48:00,
2013-01-31 20:53:00,-4.1,-12.1,30.51,North,0,8.3,10.3,68,0.00,,,0.00,WUHU216HW,2013-02-01 02:53:00,
2013-01-31 20:58:00,-4.3,-12.0,30.51,North,0,7.4,10.3,69,0.00,,,0.00,WUHU216HW,2013-02-01 02:58:00,
2013-01-31 21:03:00,-4.3,-12.3,30.51,North,0,5.1,9.8,68,0.00,,,0.00,WUHU216HW,2013-02-01 03:03:00,
2013-01-31 21:08:00,-4.5,-12.1,30.51,North,0,7.4,9.2,69,0.00,,,0.00,WUHU216HW,2013-02-01 03:08:00,
2013-01-31 21:13:00,-4.5,-12.5,30.52,North,0,6.5,10.3,68,0.00,,,0.00,WUHU216HW,2013-02-01 03:13:00,
2013-01-31 21:18:00,-4.5,-12.5,30.52,North,0,4.3,11.2,68,0.00,,,0.00,WUHU216HW,2013-02-01 03:18:00,
2013-01-31 21:23:00,-4.7,-12.7,30.52,North,0,7.2,11.2,68,0.00,,,0.00,WUHU216HW,2013-02-01 03:23:00,
2013-01-31 21:28:00,-4.7,-12.7,30.52,North,0,7.6,9.2,68,0.00,,,0.00,WUHU216HW,2013-02-01 03:28:00,
2013-01-31 21:33:00,-4.7,-12.7,30.52,North,0,6.9,10.1,68,0.00,,,0.00,WUHU216HW,2013-02-01 03:33:00,
2013-01-31 21:38:00,-4.7,-12.7,30.52,North,0,4.3,10.1,68,0.00,,,0.00,WUHU216HW,2013-02-01 03:38:00,
2013-01-31 21:43:00,-4.7,-12.7,30.52,North,0,5.4,11.4,68,0.00,,,0.00,WUHU216HW,2013-02-01 03:43:00,
2013-01-31 21:48:00,-4.9,-12.5,30.52,North,0,8.1,11.4,69,0.00,,,0.00,WUHU216HW,2013-02-01 03:48:00,
2013-01-31 21:53:00,-4.9,-12.5,30.53,North,0,6.9,10.7,69,0.00,,,0.00,WUHU216HW,2013-02-01 03:53:00,
2013-01-31 21:58:00,-4.9,-12.5,30.52,North,0,6.9,10.7,69,0.00,,,0.00,WUHU216HW,2013-02-01 03:58:00,
2013-01-31 22:03:00,-5.0,-12.7,30.53,North,0,6.0,10.7,69,0.00,,,0.00,WUHU216HW,2013-02-01 04:03:00,
2013-01-31 22:08:00,-5.0,-12.7,30.53,North,0,3.8,7.6,69,0.00,,,0.00,WUHU216HW,2013-02-01 04:08:00,
2013-01-31 22:13:00,-5.0,-12.7,30.53,North,0,3.4,8.5,69,0.00,,,0.00,WUHU216HW,2013-02-01 04:13:00,
2013-01-31 22:18:00,-5.2,-12.9,30.53,North,0,9.2,9.2,69,0.00,,,0.00,WUHU216HW,2013-02-01 04:18:00,
2013-01-31 22:23:00,-5.2,-12.9,30.53,North,0,4.0,9.2,69,0.00,,,0.00,WUHU216HW,2013-02-01 04:23:00,
2013-01-31 22:28:00,-5.4,-13.0,30.53,North,0,3.1,8.1,69,0.00,,,0.00,WUHU216HW,2013-02-01 04:28:00,
2013-01-31 22:33:00,-5.4,-12.8,30.53,North,0,6.9,10.5,70,0.00,,,0.00,WUHU216HW,2013-02-01 04:33:00,
2013-01-31 22:38:00,-5.4,-12.8,30.53,North,0,4.7,10.5,70,0.00,,,0.00,WUHU216HW,2013-02-01 04:38:00,
2013-01-31 22:43:00,-5.4,-12.8,30.54,North,0,4.5,7.4,70,0.00,,,0.00,WUHU216HW,2013-02-01 04:43:00,
2013-01-31 22:48:00,-5.4,-12.8,30.54,North,0,6.3,8.9,70,0.00,,,0.00,WUHU216HW,2013-02-01 04:48:00,
2013-01-31 22:53:00,-5.6,-13.0,30.54,North,0,6.9,8.9,70,0.00,,,0.00,WUHU216HW,2013-02-01 04:53:00,
2013-01-31 22:58:00,-5.6,-13.0,30.54,North,0,4.0,8.9,70,0.00,,,0.00,WUHU216HW,2013-02-01 04:58:00,
2013-01-31 23:00:00,-5.8,-13.1,30.54,North,0,2.9,8.9,70,0.00,,,0.00,WUHU216HW,2013-02-01 05:00:00,
2013-01-31 23:05:00,-5.8,-13.1,30.54,North,0,5.1,7.6,70,0.00,,,0.00,WUHU216HW,2013-02-01 05:05:00,
2013-01-31 23:10:00,-5.8,-13.1,30.54,North,0,9.8,9.8,70,0.00,,,0.00,WUHU216HW,2013-02-01 05:10:00,
2013-01-31 23:15:00,-5.9,-13.3,30.54,North,0,8.3,9.8,70,0.00,,,0.00,WUHU216HW,2013-02-01 05:15:00,
2013-01-31 23:20:00,-6.1,-13.5,30.54,North,0,6.9,9.8,70,0.00,,,0.00,WUHU216HW,2013-02-01 05:20:00,
2013-01-31 23:25:00,-6.1,-13.5,30.54,North,0,2.9,8.5,70,0.00,,,0.00,WUHU216HW,2013-02-01 05:25:00,
2013-01-31 23:30:00,-6.1,-13.5,30.54,North,0,2.5,8.5,70,0.00,,,0.00,WUHU216HW,2013-02-01 05:30:00,
2013-01-31 23:35:00,-6.1,-13.5,30.54,North,0,5.8,7.6,70,0.00,,,0.00,WUHU216HW,2013-02-01 05:35:00,
2013-01-31 23:40:00,-6.1,-13.5,30.55,North,0,8.1,8.1,70,0.00,,,0.00,WUHU216HW,2013-02-01 05:40:00,
2013-01-31 23:45:00,-6.1,-13.5,30.55,North,0,3.1,8.1,70,0.00,,,0.00,WUHU216HW,2013-02-01 05:45:00,
2013-01-31 23:50:00,-6.1,-13.5,30.55,North,0,3.8,8.1,70,0.00,,,0.00,WUHU216HW,2013-02-01 05:50:00,
2013-01-31 23:55:00,-6.3,-13.6,30.55,North,0,5.1,7.8,70,0.00,,,0.00,WUHU216HW,2013-02-01 05:55:00,